User: anonymous   Login
Location: Caltech
(34.1382°N, 118.1253°W)
Time: 08:18:23
(UTC-07:00)
Language:

Cosmos 1758 Rocket - Orbit

View from above orbital plane
View from above orbital plane
View from above satellite
View from above satellite

Ground track
Ground track

The orbit data is extracted from the following two-line orbital elements,

1 16792U 86046B   15242.57470867  .00000180  00000-0  19158-4 0  9994
2 16792 082.4812 100.1779 0022963 296.6537 122.8713 14.82956123577562
Epoch (UTC): 30 August 2015 13:47:34
Eccentricity: 0.0022963
inclination: 82.4812°
perigee height: 604 km
apogee height: 636 km
right ascension of ascending node: 100.1779°
argument of perigee: 296.6537°
revolutions per day: 14.82956123
mean anomaly at epoch: 122.8713°
orbit number at epoch: 57756

The dashed part of the orbit path shows where the satellite is in the earth's shadow,  

DLR